Regional Weather Roundup
Issued by NWS Little Rock, AR

Home | Current Version | Previous Version | Text Only | Print | Product List | Glossary Off
Versions: 1 2 3 4 5 6 7 8 9 10 11 12 13 14 15 16 17 18 19 20 21 22 23 24 25 26 27 28 29 30 31 32 33 34 35 36 37 38 39 40 41 42 43 44 45 46 47 48 49 50

000
ASUS44 KLZK 191305
RWRLZK

WEATHER ROUNDUP FOR ARKANSAS
NATIONAL WEATHER SERVICE LITTLE ROCK AR
800 AM CDT TUE AUG 19 2014

NOTE: "FAIR" INDICATES FEW OR NO CLOUDS BELOW 12,000 FEET WITH NO
SIGNIFICANT WEATHER AND/OR OBSTRUCTIONS TO VISIBILITY.

ARZ001-003-010-029-191400-
NORTHWEST ARKANSAS

CITY           SKY/WX    TMP DP  RH WIND       PRES   REMARKS
FAYETTEVILLE   PTSUNNY   74  71  91 S6        29.94S
FORT SMITH     PTSUNNY   73  69  87 NE3       29.92R
HARRISON       MOSUNNY   78  70  76 W13       29.91S
BENTONVILLE    PTSUNNY   73  70  88 SW7       29.94R
ROGERS         PTSUNNY   74  69  85 SW10      29.94R
SILOAM SPGS    PTSUNNY   72  64  78 SW6       29.94F
HIGHFILL       PTSUNNY   71  69  93 SW8       29.92F
SPRINGDALE     MOSUNNY   75  70  83 SW7       29.95S
$$

ARZ004-005-016-191400-
NORTH CENTRAL ARKANSAS

CITY           SKY/WX    TMP DP  RH WIND       PRES   REMARKS
BATESVILLE     PTSUNNY   77  64  65 SW5       29.88R
FLIPPIN        SUNNY     72  66  83 CALM      29.89S
MTN HOME       MOSUNNY   75  68  78 W3        29.89R
$$

ARZ040-041-191400-
WEST CENTRAL ARKANSAS

CITY           SKY/WX    TMP DP  RH WIND       PRES   REMARKS
MENA           SUNNY     75  70  83 CALM      29.94R
MOUNT IDA      SUNNY     69  67  93 CALM      29.91R
$$

ARZ009-017-025-026-028-191400-
NORTHEAST ARKANSAS

CITY           SKY/WX    TMP DP  RH WIND       PRES   REMARKS
CORNING        FAIR      73  73 100 S8        29.86S
JONESBORO      MOSUNNY   73  69  87 SW7       29.88R
NEWPORT        PTSUNNY   74  70  87 SW8         N/A
WALNUT RIDGE   SUNNY     73  68  83 S9        29.86S
BLYTHEVILLE    SUNNY     73  71  93 S8        29.88S
NW BLYTHEVILLE SUNNY     73  72  94 S12       29.88
$$

ARZ022-023-033-042-044-191400-
CENTRAL ARKANSAS

CITY           SKY/WX    TMP DP  RH WIND       PRES   REMARKS
LITTLE ROCK    MOSUNNY   72  67  84 SW5       29.91S
N LITTLE ROCK    N/A     73  69  86 SW3       29.91S
JACKSONVILLE   SUNNY     73  69  86 SW6       29.91R
SEARCY         MOSUNNY   73  70  91 VRB5      29.90R
HOT SPRINGS    SUNNY     72  68  87 CALM      29.93R
RUSSELLVILLE   SUNNY     73  68  84 N3        29.91R
CLINTON        FAIR      70  70 100 CALM      29.93R FOG
$$

ARZ036-191400-
EAST ARKANSAS

CITY           SKY/WX    TMP DP  RH WIND       PRES   REMARKS
WEST MEMPHIS   MOSUNNY   73  71  93 S8        29.90R
$$

ARZ050-053-066-070-073-191400-
SOUTHWEST ARKANSAS

CITY           SKY/WX    TMP DP  RH WIND       PRES   REMARKS
ARKADELPHIA    FAIR      72  71  96 S5        29.93R
CAMDEN         MOSUNNY   73  68  83 CALM      29.93R FOG
TEXARKANA      SUNNY     76  72  87 SW5       29.93R
EL DORADO      MOSUNNY   74  73  97 S3        29.94R
DE QUEEN       SUNNY     70  69  97 CALM      29.91R
$$

ARZ056-057-069-191400-
SOUTHEAST ARKANSAS

CITY           SKY/WX    TMP DP  RH WIND       PRES   REMARKS
PINE BLUFF     MOSUNNY   72  69  90 SW6       29.92S
STUTTGART      MOSUNNY   73  70  88 SW6       29.92S
MONTICELLO     SUNNY     75  71  87 SW3       29.94R

$$





USA.gov is the U.S. government's official web portal to all federal, state and local government web resources and services.